TimeMDT,TemperatureF,Dew PointF,Humidity,Sea Level PressureIn,VisibilityMPH,Wind Direction,Wind SpeedMPH,Gust SpeedMPH,PrecipitationIn,Events,Conditions,WindDirDegrees,DateUTC
12:53 AM,33.1,23.0,66,30.20,10.0,Calm,Calm,-,N/A,,Clear,0,2013-10-22 06:53:00
1:53 AM,30.9,21.9,69,30.21,10.0,NNE,4.6,-,N/A,,Clear,20,2013-10-22 07:53:00
2:53 AM,27.0,21.0,78,30.23,10.0,ENE,6.9,-,N/A,,Clear,60,2013-10-22 08:53:00
3:53 AM,28.0,21.0,75,30.22,10.0,ENE,3.5,-,N/A,,Clear,60,2013-10-22 09:53:00
4:53 AM,27.0,19.9,75,30.24,10.0,Calm,Calm,-,N/A,,Clear,0,2013-10-22 10:53:00
5:53 AM,26.1,19.0,75,30.27,10.0,East,3.5,-,N/A,,Clear,80,2013-10-22 11:53:00
6:53 AM,26.1,19.0,75,30.30,10.0,Calm,Calm,-,N/A,,Clear,0,2013-10-22 12:53:00
7:53 AM,26.1,19.9,78,30.35,10.0,NE,3.5,-,N/A,,Clear,40,2013-10-22 13:53:00
8:53 AM,35.1,21.9,59,30.34,10.0,Calm,Calm,-,N/A,,Clear,0,2013-10-22 14:53:00
9:53 AM,42.1,24.1,49,30.32,10.0,East,3.5,-,N/A,,Clear,80,2013-10-22 15:53:00
10:53 AM,48.9,21.0,33,30.30,10.0,East,3.5,-,N/A,,Clear,100,2013-10-22 16:53:00
11:53 AM,54.0,19.0,25,30.28,10.0,East,6.9,-,N/A,,Clear,100,2013-10-22 17:53:00
12:53 PM,57.9,19.9,23,30.24,10.0,Variable,6.9,-,N/A,,Clear,0,2013-10-22 18:53:00
1:53 PM,59.0,19.9,22,30.22,10.0,SSE,6.9,-,N/A,,Clear,150,2013-10-22 19:53:00
2:53 PM,61.0,23.0,23,30.21,10.0,WSW,6.9,-,N/A,,Clear,240,2013-10-22 20:53:00
3:53 PM,61.0,21.9,22,30.20,10.0,West,8.1,-,N/A,,Clear,270,2013-10-22 21:53:00
4:53 PM,61.0,19.9,21,30.20,10.0,Variable,3.5,-,N/A,,Clear,0,2013-10-22 22:53:00
5:53 PM,59.0,21.0,23,30.20,10.0,WSW,4.6,-,N/A,,Clear,240,2013-10-22 23:53:00
6:53 PM,52.0,19.9,28,30.25,10.0,SW,5.8,-,N/A,,Clear,220,2013-10-23 00:53:00
7:53 PM,48.9,21.9,35,30.27,10.0,Calm,Calm,-,N/A,,Clear,0,2013-10-23 01:53:00
8:53 PM,37.9,24.1,57,30.29,10.0,NE,5.8,-,N/A,,Clear,40,2013-10-23 02:53:00
9:53 PM,39.9,25.0,55,30.26,10.0,North,4.6,-,N/A,,Clear,360,2013-10-23 03:53:00
10:53 PM,37.0,24.1,59,30.25,10.0,NNE,5.8,-,N/A,,Clear,20,2013-10-23 04:53:00
11:53 PM,32.0,23.0,69,30.24,10.0,NNE,3.5,-,N/A,,Clear,30,2013-10-23 05:53:00